Regional Weather Roundup
Issued by NWS Northern Indiana

Home | Current Version | Previous Version | Text Only | Print | Product List | Glossary On
Versions: 1 2 3 4 5 6 7 8 9 10 11 12 13 14 15 16 17 18 19 20 21 22 23 24 25 26 27 28 29 30 31 32 33 34 35 36 37 38 39 40 41 42 43 44 45 46 47 48 49 50
720
ASUS43 KIWX 191210
RWRIWX

KIWX WEATHER ROUNDUP
NATIONAL WEATHER SERVICE NORTHERN INDIANA
700 AM EST FRI JAN 19 2018

NOTE: "FAIR" INDICATES FEW OR NO CLOUDS BELOW 12,000 FEET WITH NO
SIGNIFICANT WEATHER AND/OR OBSTRUCTIONS TO VISIBILITY.

* THESE STATIONS ARE NOT UNDER NWS QUALITY CONTROL. THEY ALSO MAY NOT
  REPORT WEATHER SUCH AS PRECIPITATION OR FOG.

INZ001>027-191300-
NORTHERN INDIANA

CITY           SKY/WX    TMP DP  RH WIND       PRES   REMARKS
GARY*          PTCLDY    27  18  69 SW9G21    29.95F WCI  17
VALPARAISO     FAIR      23  16  74 S10       29.97F WCI  12
6HR MIN TEMP:  23; 6HR MAX TEMP:  25;

MICHIGAN CITY* FAIR      25  18  74 S12       29.96F WCI  14
LAPORTE*       FAIR      23  16  75 SW13      29.97F WCI  11
6HR MIN TEMP:  22; 6HR MAX TEMP:  24;

KNOX*          FAIR      23  18  80 SW12      29.99F WCI  12
SOUTH BEND     FAIR      23  15  71 SW15      29.96F WCI  10
6HR MIN TEMP:  22; 6HR MAX TEMP:  24;

ELKHART*       FAIR      25  16  68 S7        29.97  WCI  17
GOSHEN         FAIR      23  15  71 SW18G29   29.98F WCI   9
6HR MIN TEMP:  22; 6HR MAX TEMP:  24;

MONTICELLO*    FAIR      23  14  70 SW12      30.02F WCI  11
6HR MIN TEMP:  22; 6HR MAX TEMP:  23;

LOGANSPORT*    FAIR      23  14  68 SW14      30.05S WCI  11
ROCHESTER*     FAIR      27  18  69 SW9       30.02F WCI  17
WARSAW*        FAIR      23  16  74 SW5       30.01S WCI  17
AUBURN*        FAIR      23  14  68 SW9       30.00F WCI  13
FORT WAYNE     FAIR      22  14  71 SW13      30.04S WCI  10
6HR MIN TEMP:  22; 6HR MAX TEMP:  25;

HUNTINGTON*    FAIR      23  13  65 SW8       30.04F WCI  14
6HR MIN TEMP:  23; 6HR MAX TEMP:  24;

PERU/GRISSOM   CLEAR     23  16  73 SW14      30.03S WCI  11
6HR MIN TEMP:  23; 6HR MAX TEMP:  24;

MARION*        FAIR      22  14  70 SW15      30.07R WCI   9
6HR MIN TEMP: -17; 6HR MAX TEMP:  56;


$$
INZ028>050-191300-
CENTRAL INDIANA

CITY           SKY/WX    TMP DP  RH WIND       PRES   REMARKS
LAFAYETTE      FAIR      23  15  71 SW8       30.06S WCI  14
6HR MIN TEMP:  23; 6HR MAX TEMP:  24;

MUNCIE*        FAIR      24  11  57 SW13      30.07R WCI  12
6HR MIN TEMP:  23; 6HR MAX TEMP:  25;

INDIANAPOLIS   FAIR      19  11  70 SW8       30.11S WCI   9
6HR MIN TEMP:  19; 6HR MAX TEMP:  24;


$$
MIZ043>046-050>051-056>058-064>065-071>073-077>080-191300-
SOUTHWEST LOWER MICHIGAN

CITY           SKY/WX    TMP DP  RH WIND       PRES   REMARKS
BATTLE CREEK   FAIR      22  15  75 SW12      29.91F WCI  10
6HR MIN TEMP:  20; 6HR MAX TEMP:  27;

BENTON HARBOR  FAIR      25  16  68 S8        29.93F WCI  16
6HR MIN TEMP:  24; 6HR MAX TEMP:  30;

COLDWATER*     FAIR      25  17  70 SW13      29.95F WCI  13
6HR MIN TEMP:  24; 6HR MAX TEMP:  25;

HILLSDALE*     FAIR      25  16  68 SW9G16    29.93F WCI  15
HOLLAND        FAIR      32  25  75 SW17G29   29.88F WCI  21
6HR MIN TEMP:  32; 6HR MAX TEMP:  33;

GRAND RAPIDS   FAIR      26  19  74 SW15      29.87S WCI  14
6HR MIN TEMP:  25; 6HR MAX TEMP:  30;

KALAMAZOO      FAIR      27  17  66 SW13      29.92F WCI  16
6HR MIN TEMP:  25; 6HR MAX TEMP:  27;

STURGIS*       FAIR      24  17  73 SW13G18   29.95F WCI  13
6HR MIN TEMP:  24; 6HR MAX TEMP:  24;

THREE RIVERS*  FAIR      24  16  73 SW10      29.95F WCI  13
6HR MIN TEMP:  23; 6HR MAX TEMP:  27;


$$
OHZ001>008-015>018-024>025-191300-
NORTHWEST OHIO

CITY           SKY/WX    TMP DP  RH WIND       PRES   REMARKS
WAUSEON*       FAIR      21  16  79 SW13      29.98F WCI   9
DEFIANCE       FAIR      21  12  68 SW13      30.02F WCI   9
6HR MIN TEMP:  21; 6HR MAX TEMP:  25;

FINDLAY        FAIR      25  13  60 SW16      30.03F WCI  12
6HR MIN TEMP:  24; 6HR MAX TEMP:  26;

TOLEDO EXPRESS FAIR      24  15  68 SW15      29.99F WCI  11
6HR MIN TEMP:  24; 6HR MAX TEMP:  26;

TOLEDO METCALF FAIR      22  13  68 SW15      30.01S WCI   9
6HR MIN TEMP:  22; 6HR MAX TEMP:  24;

LIMA           FAIR      23  13  65 SW12      30.05S WCI  12
6HR MIN TEMP:  23; 6HR MAX TEMP:  24;


$$
AND FOR LAKE MICHIGAN COASTAL AND OPEN LAKE BUOY OBSERVATIONS

STATION/POSITION TEMP    WIND        PRES    VSBY  WAVE
                 AIR SEA DIR/SP/G                  HT/PER
                 (F)     (DEG/KT/KT) (MB)    (MI)  (FT/S)
CALUMET HARBOR    27     200/ 12/ 19 1012.5F
MICHIGAN CITY     28     180/ 17/ 19   N/A
BURNS HARBOR      29     200/ 17/ 22 1014.6F
SAINT JOSEPH      28     200/ 13/ 19 1013.5

$$
&&




USA.gov is the U.S. government's official web portal to all federal, state and local government web resources and services.